Datum;Zeit;Leistung;Tagesertrag;Temperatur WR
01.01.2015;10:00:00;0;0;0
01.01.2015;17:00:00;0;0;0
02.01.2015;10:00:00;0;0;0
02.01.2015;17:00:00;0;0;0
03.01.2015;10:00:00;0;0;0
03.01.2015;17:00:00;0;0;0
04.01.2015;08:35:00;40;0;11
04.01.2015;08:45:00;165;0;25
04.01.2015;08:55:00;190;0;26
04.01.2015;09:05:00;232;0;27
04.01.2015;09:15:00;365;0.1;27
04.01.2015;09:25:00;244;0.1;27
04.01.2015;09:35:00;459;0.2;28
04.01.2015;09:45:00;771;0.3;28
04.01.2015;09:55:00;981;0.5;28
04.01.2015;10:05:00;1262;0.7;29
04.01.2015;10:15:00;946;0.9;29
04.01.2015;10:25:00;1221;1.1;29
04.01.2015;10:35:00;1663;1.4;29
04.01.2015;10:45:00;1702;1.8;30
04.01.2015;10:55:00;4975;2.4;32
04.01.2015;11:05:00;4517;3.1;35
04.01.2015;11:15:00;1300;3.4;34
04.01.2015;11:25:00;3778;3.9;34
04.01.2015;11:35:00;3710;4.4;35
04.01.2015;11:45:00;1133;4.6;34
04.01.2015;11:55:00;1819;5.0;34
04.01.2015;12:05:00;1540;5.5;35
04.01.2015;12:15:00;1135;5.7;34
04.01.2015;12:25:00;880;5.8;33
04.01.2015;12:35:00;5767;6.5;36
04.01.2015;12:45:00;1883;7.1;37
04.01.2015;12:55:00;1099;7.3;35
04.01.2015;13:05:00;1292;7.5;34
04.01.2015;13:15:00;1624;7.8;34
04.01.2015;13:25:00;1406;8.0;33
04.01.2015;13:35:00;1205;8.4;34
04.01.2015;13:45:00;2269;8.7;34
04.01.2015;13:55:00;4746;9.5;37
04.01.2015;14:05:00;4026;10.1;37
04.01.2015;14:15:00;3299;10.7;39
04.01.2015;14:25:00;1441;11.0;37
04.01.2015;14:35:00;590;11.1;35
04.01.2015;14:45:00;1309;11.3;35
04.01.2015;14:55:00;678;11.4;34
04.01.2015;15:05:00;699;11.6;33
04.01.2015;15:15:00;854;11.7;33
04.01.2015;15:25:00;812;11.8;33
04.01.2015;15:35:00;827;12.0;33
04.01.2015;15:45:00;599;12.1;33
04.01.2015;15:55:00;566;12.2;33
04.01.2015;16:05:00;400;12.2;33
04.01.2015;16:15:00;271;12.3;32
04.01.2015;16:25:00;175;12.3;32
04.01.2015;16:35:00;143;12.4;32
04.01.2015;16:45:00;102;12.4;32
04.01.2015;17:00:00;0;12.4;0
05.01.2015;08:20:00;15;0;16
05.01.2015;08:30:00;144;0;25
05.01.2015;08:40:00;181;0;26
05.01.2015;08:50:00;214;0;27
05.01.2015;09:00:00;221;0.1;27
05.01.2015;09:10:00;274;0.1;27
05.01.2015;09:20:00;310;0.2;28
05.01.2015;09:30:00;883;0.3;28
05.01.2015;09:40:00;1050;0.4;28
05.01.2015;09:50:00;1235;0.6;28
05.01.2015;10:00:00;1468;0.9;29
05.01.2015;10:10:00;1609;1.1;29
05.01.2015;10:20:00;2048;1.4;29
05.01.2015;10:30:00;3088;1.9;31
05.01.2015;10:40:00;3457;2.5;32
05.01.2015;10:50:00;3788;3.1;34
05.01.2015;11:00:00;4112;3.8;35
05.01.2015;11:10:00;4300;4.5;37
05.01.2015;11:20:00;4457;5.2;38
05.01.2015;11:30:00;4604;5.9;39
05.01.2015;11:40:00;4729;6.7;40
05.01.2015;11:50:00;4793;7.5;41
05.01.2015;12:00:00;4885;8.3;42
05.01.2015;12:10:00;4975;9.1;43
05.01.2015;12:20:00;5030;10.0;43
05.01.2015;12:30:00;5043;10.8;44
05.01.2015;12:40:00;5050;11.6;44
05.01.2015;12:50:00;5011;12.5;45
05.01.2015;13:00:00;4908;13.3;45
05.01.2015;13:10:00;4795;14.1;45
05.01.2015;13:20:00;4665;14.8;45
05.01.2015;13:30:00;4454;15.6;45
05.01.2015;13:40:00;4127;16.3;45
05.01.2015;13:50:00;3673;16.9;44
05.01.2015;14:00:00;3172;17.5;43
05.01.2015;14:10:00;2934;18.0;42
05.01.2015;14:20:00;2402;18.4;41
05.01.2015;14:30:00;1864;18.7;39
05.01.2015;14:40:00;1380;19.0;38
05.01.2015;14:50:00;975;19.1;37
05.01.2015;15:00:00;2255;19.5;37
05.01.2015;15:10:00;1964;19.8;37
05.01.2015;15:20:00;1244;20.0;36
05.01.2015;15:30:00;687;20.2;35
05.01.2015;15:40:00;276;20.2;34
05.01.2015;15:50:00;283;20.3;34
05.01.2015;16:00:00;258;20.3;34
05.01.2015;16:10:00;228;20.3;33
05.01.2015;16:20:00;199;20.4;33
05.01.2015;16:30:00;171;20.4;33
05.01.2015;16:40:00;135;20.4;33
05.01.2015;16:50:00;63;20.4;33
05.01.2015;17:00:00;0;20.4;0
05.01.2015;17:10:00;0;20.4;0
06.01.2015;08:20:00;0;0;13
06.01.2015;08:30:00;134;0;25
06.01.2015;08:40:00;175;0;25
06.01.2015;08:50:00;210;0;26
06.01.2015;09:00:00;238;0.1;26
06.01.2015;09:10:00;264;0.1;27
06.01.2015;09:20:00;303;0.2;27
06.01.2015;09:30:00;795;0.3;27
06.01.2015;09:40:00;930;0.4;28
06.01.2015;09:50:00;1125;0.6;28
06.01.2015;10:00:00;1357;0.8;28
06.01.2015;10:10:00;1644;1.1;28
06.01.2015;10:20:00;2429;1.4;29
06.01.2015;10:30:00;3123;1.9;30
06.01.2015;10:40:00;3390;2.5;32
06.01.2015;10:50:00;3781;3.1;33
06.01.2015;11:00:00;3996;3.7;35
06.01.2015;11:10:00;4147;4.4;36
06.01.2015;11:20:00;3934;5.0;37
06.01.2015;11:30:00;4221;5.7;38
06.01.2015;11:40:00;4293;6.4;39
06.01.2015;11:50:00;4395;7.1;39
06.01.2015;12:00:00;4875;7.9;41
06.01.2015;12:10:00;4827;8.7;42
06.01.2015;12:20:00;5071;9.5;42
06.01.2015;12:30:00;4851;10.4;43
06.01.2015;12:40:00;4758;11.1;43
06.01.2015;12:50:00;4313;11.8;43
06.01.2015;13:00:00;4432;12.6;43
06.01.2015;13:10:00;3944;13.2;43
06.01.2015;13:20:00;3534;13.8;42
06.01.2015;13:30:00;4295;14.5;42
06.01.2015;13:40:00;3043;15.1;42
06.01.2015;13:50:00;3399;15.6;41
06.01.2015;14:00:00;3772;16.2;41
06.01.2015;14:10:00;3326;16.8;41
06.01.2015;14:20:00;2264;17.2;40
06.01.2015;14:30:00;2098;17.6;39
06.01.2015;14:40:00;1766;17.9;38
06.01.2015;14:50:00;1482;18.2;37
06.01.2015;15:00:00;1287;18.4;36
06.01.2015;15:10:00;1166;18.6;35
06.01.2015;15:20:00;1092;18.8;34
06.01.2015;15:30:00;962;18.9;34
06.01.2015;15:40:00;768;19.1;34
06.01.2015;15:50:00;688;19.2;33
06.01.2015;16:00:00;601;19.3;33
06.01.2015;16:10:00;492;19.4;33
06.01.2015;16:20:00;390;19.4;33
06.01.2015;16:30:00;273;19.5;32
06.01.2015;16:40:00;183;19.5;32
06.01.2015;16:50:00;115;19.5;32
06.01.2015;17:00:00;108;19.6;32
06.01.2015;17:10:00;0;19.6;0
07.01.2015;08:30:00;7;0;8
07.01.2015;08:40:00;193;0;25
07.01.2015;08:50:00;274;0;25
07.01.2015;09:00:00;328;0.1;26
07.01.2015;09:10:00;399;0.1;26
07.01.2015;09:20:00;476;0.2;27
07.01.2015;09:30:00;573;0.3;27
07.01.2015;09:40:00;760;0.4;27
07.01.2015;09:50:00;794;0.5;28
07.01.2015;10:00:00;1018;0.7;28
07.01.2015;10:10:00;1107;0.9;28
07.01.2015;10:20:00;1020;1.0;28
07.01.2015;10:30:00;1060;1.2;29
07.01.2015;10:40:00;1245;1.4;29
07.01.2015;10:50:00;1407;1.7;29
07.01.2015;11:00:00;1790;1.9;29
07.01.2015;11:10:00;1881;2.3;30
07.01.2015;11:20:00;1999;2.6;30
07.01.2015;11:30:00;1942;2.9;31
07.01.2015;11:40:00;1504;3.2;31
07.01.2015;11:50:00;1905;3.4;31
07.01.2015;12:00:00;5961;4.2;34
07.01.2015;12:10:00;1875;4.6;34
07.01.2015;12:20:00;1459;4.8;33
07.01.2015;12:30:00;1591;5.1;32
07.01.2015;12:40:00;1787;5.4;33
07.01.2015;12:50:00;2252;5.7;33
07.01.2015;13:00:00;5509;6.5;35
07.01.2015;13:10:00;4914;7.3;38
07.01.2015;13:20:00;4768;8.1;39
07.01.2015;13:30:00;4630;8.9;40
07.01.2015;13:40:00;5085;9.7;41
07.01.2015;13:50:00;4471;10.5;42
07.01.2015;14:00:00;1142;10.9;39
07.01.2015;14:10:00;2356;11.2;38
07.01.2015;14:20:00;2136;11.5;37
07.01.2015;14:30:00;2633;11.9;37
07.01.2015;14:40:00;900;12.1;35
07.01.2015;14:50:00;881;12.3;34
07.01.2015;15:00:00;663;12.4;34
07.01.2015;15:10:00;659;12.5;33
07.01.2015;15:20:00;476;12.6;33
07.01.2015;15:30:00;391;12.7;33
07.01.2015;15:40:00;391;12.7;33
07.01.2015;15:50:00;667;12.8;32
07.01.2015;16:00:00;496;12.9;32
07.01.2015;16:10:00;402;13.0;32
07.01.2015;16:20:00;229;13.0;32
07.01.2015;16:30:00;183;13.1;32
07.01.2015;16:40:00;145;13.1;32
07.01.2015;16:50:00;111;13.1;32
07.01.2015;17:00:00;0;13.1;6
07.01.2015;17:10:00;0;13.1;0
08.01.2015;08:25:00;198;0;24
08.01.2015;08:35:00;287;0;25
08.01.2015;08:45:00;325;0.1;26
08.01.2015;08:55:00;404;0.1;26
08.01.2015;09:05:00;538;0.2;27
08.01.2015;09:15:00;523;0.3;27
08.01.2015;09:25:00;388;0.4;28
08.01.2015;09:35:00;414;0.4;28
08.01.2015;09:45:00;516;0.5;28
08.01.2015;09:55:00;616;0.6;28
08.01.2015;10:05:00;674;0.7;28
08.01.2015;10:15:00;714;0.8;29
08.01.2015;10:25:00;783;1.0;29
08.01.2015;10:35:00;952;1.1;29
08.01.2015;10:45:00;1060;1.3;29
08.01.2015;10:55:00;1429;1.5;29
08.01.2015;11:05:00;1683;1.8;29
08.01.2015;11:15:00;1560;2.0;30
08.01.2015;11:25:00;1595;2.3;30
08.01.2015;11:35:00;1439;2.6;30
08.01.2015;11:45:00;1436;2.8;30
08.01.2015;11:55:00;1778;3.1;31
08.01.2015;12:05:00;2012;3.4;31
08.01.2015;12:15:00;2108;3.8;31
08.01.2015;12:25:00;2420;4.1;32
08.01.2015;12:35:00;6538;4.9;35
08.01.2015;12:45:00;6684;6.0;39
08.01.2015;12:55:00;5264;7.0;41
08.01.2015;13:05:00;3712;7.8;41
08.01.2015;13:15:00;3815;8.3;40
08.01.2015;13:25:00;1521;8.6;38
08.01.2015;13:35:00;1427;8.8;36
08.01.2015;13:45:00;1438;9.1;35
08.01.2015;13:55:00;1320;9.3;35
08.01.2015;14:05:00;2572;9.7;35
08.01.2015;14:15:00;4378;10.3;37
08.01.2015;14:25:00;3545;10.9;38
08.01.2015;14:35:00;2411;11.2;37
08.01.2015;14:45:00;2031;11.5;36
08.01.2015;14:55:00;1337;11.8;35
08.01.2015;15:05:00;1011;11.9;34
08.01.2015;15:15:00;873;12.1;33
08.01.2015;15:25:00;785;12.2;33
08.01.2015;15:35:00;673;12.3;33
08.01.2015;15:45:00;762;12.5;33
08.01.2015;15:55:00;449;12.5;33
08.01.2015;16:05:00;324;12.6;32
08.01.2015;16:15:00;307;12.7;32
08.01.2015;16:25:00;283;12.7;32
08.01.2015;16:35:00;207;12.7;32
08.01.2015;16:45:00;128;12.8;32
08.01.2015;16:55:00;17;12.8;31
08.01.2015;17:05:00;0;12.8;0
08.01.2015;17:10:00;0;12.8;0
09.01.2015;08:35:00;0;0;2
09.01.2015;08:45:00;134;0;24
09.01.2015;08:55:00;213;0;25
09.01.2015;09:05:00;231;0;26
09.01.2015;09:15:00;218;0.1;26
09.01.2015;09:25:00;168;0.1;27
09.01.2015;09:35:00;504;0.2;27
09.01.2015;09:45:00;737;0.3;27
09.01.2015;09:55:00;525;0.4;28
09.01.2015;10:05:00;409;0.5;28
09.01.2015;10:15:00;892;0.6;28
09.01.2015;10:25:00;1130;0.8;28
09.01.2015;10:35:00;1471;1.0;29
09.01.2015;10:45:00;1158;1.2;29
09.01.2015;10:55:00;1038;1.4;29
09.01.2015;11:05:00;1384;1.6;29
09.01.2015;11:15:00;964;1.8;29
09.01.2015;11:25:00;721;1.9;30
09.01.2015;11:35:00;624;2.0;30
09.01.2015;11:45:00;502;2.1;30
09.01.2015;11:55:00;474;2.2;30
09.01.2015;12:05:00;535;2.3;30
09.01.2015;12:15:00;628;2.4;30
09.01.2015;12:25:00;720;2.5;30
09.01.2015;12:35:00;790;2.6;30
09.01.2015;12:45:00;826;2.8;30
09.01.2015;12:55:00;672;2.9;30
09.01.2015;13:05:00;1035;3.0;30
09.01.2015;13:15:00;801;3.2;30
09.01.2015;13:25:00;547;3.3;30
09.01.2015;13:35:00;806;3.4;30
09.01.2015;13:45:00;1002;3.6;30
09.01.2015;13:55:00;1036;3.7;30
09.01.2015;14:05:00;672;3.9;30
09.01.2015;14:15:00;759;4.0;30
09.01.2015;14:25:00;558;4.1;30
09.01.2015;14:35:00;581;4.2;30
09.01.2015;14:45:00;508;4.3;30
09.01.2015;14:55:00;505;4.3;30
09.01.2015;15:05:00;496;4.4;30
09.01.2015;15:15:00;402;4.5;30
09.01.2015;15:25:00;421;4.6;30
09.01.2015;15:35:00;294;4.6;30
09.01.2015;15:45:00;280;4.7;30
09.01.2015;15:55:00;297;4.7;30
09.01.2015;16:05:00;268;4.8;30
09.01.2015;16:15:00;225;4.8;30
09.01.2015;16:25:00;151;4.8;30
09.01.2015;16:35:00;118;4.8;30
09.01.2015;16:45:00;25;4.9;25
09.01.2015;16:55:00;0;4.9;0
09.01.2015;17:05:00;0;4.9;0
10.01.2015;08:25:00;7;0;8
10.01.2015;08:35:00;150;0;24
10.01.2015;08:45:00;281;0;25
10.01.2015;08:55:00;287;0.1;26
10.01.2015;09:05:00;269;0.1;26
10.01.2015;09:15:00;273;0.2;27
10.01.2015;09:25:00;514;0.2;27
10.01.2015;09:35:00;1054;0.4;28
10.01.2015;09:45:00;1448;0.6;28
10.01.2015;09:55:00;715;0.8;28
10.01.2015;10:05:00;601;0.9;28
10.01.2015;10:15:00;2559;1.2;29
10.01.2015;10:25:00;2786;1.6;29
10.01.2015;10:35:00;3241;2.2;31
10.01.2015;10:45:00;3553;2.7;32
10.01.2015;10:55:00;3869;3.4;34
10.01.2015;11:05:00;4063;4.0;35
10.01.2015;11:15:00;4240;4.7;37
10.01.2015;11:25:00;4373;5.4;38
10.01.2015;11:35:00;4521;6.1;39
10.01.2015;11:45:00;4668;6.9;40
10.01.2015;11:55:00;4720;7.7;41
10.01.2015;12:05:00;4869;8.5;42
10.01.2015;12:15:00;4934;9.3;42
10.01.2015;12:25:00;4969;10.1;43
10.01.2015;12:35:00;4964;10.9;44
10.01.2015;12:45:00;4996;11.8;44
10.01.2015;12:55:00;5031;12.6;45
10.01.2015;13:05:00;5009;13.4;45
10.01.2015;13:15:00;4915;14.2;45
10.01.2015;13:25:00;4778;15.0;45
10.01.2015;13:35:00;3720;15.7;44
10.01.2015;13:45:00;4002;16.3;43
10.01.2015;13:55:00;3909;17.0;44
10.01.2015;14:05:00;3516;17.6;43
10.01.2015;14:15:00;1033;17.8;40
10.01.2015;14:25:00;1056;18.1;39
10.01.2015;14:35:00;854;18.3;37
10.01.2015;14:45:00;651;18.4;36
10.01.2015;14:55:00;540;18.4;35
10.01.2015;15:05:00;587;18.5;35
10.01.2015;15:15:00;446;18.6;34
10.01.2015;15:25:00;536;18.7;34
10.01.2015;15:35:00;513;18.8;34
10.01.2015;15:45:00;386;18.9;33
10.01.2015;15:55:00;307;18.9;33
10.01.2015;16:05:00;308;19.0;33
10.01.2015;16:15:00;273;19.0;33
10.01.2015;16:25:00;233;19.1;33
10.01.2015;16:35:00;160;19.1;32
10.01.2015;16:45:00;132;19.1;32
10.01.2015;16:55:00;86;19.1;32
10.01.2015;17:05:00;0;19.1;0
10.01.2015;17:15:00;0;19.1;0
11.01.2015;08:35:00;0;0;13
11.01.2015;08:45:00;190;0;24
11.01.2015;08:55:00;170;0;25
11.01.2015;09:05:00;168;0;26
11.01.2015;09:15:00;194;0.1;27
11.01.2015;09:25:00;177;0.1;27
11.01.2015;09:35:00;226;0.1;27
11.01.2015;09:45:00;245;0.2;28
11.01.2015;09:55:00;300;0.2;28
11.01.2015;10:05:00;381;0.3;28
11.01.2015;10:15:00;420;0.3;28
11.01.2015;10:25:00;580;0.4;28
11.01.2015;10:35:00;882;0.6;29
11.01.2015;10:45:00;1144;0.8;29
11.01.2015;10:55:00;699;0.9;29
11.01.2015;11:05:00;301;1.0;29
11.01.2015;11:15:00;537;1.0;29
11.01.2015;11:25:00;511;1.1;29
11.01.2015;11:35:00;657;1.2;29
11.01.2015;11:45:00;965;1.4;30
11.01.2015;11:55:00;760;1.5;30
11.01.2015;12:05:00;223;1.6;30
11.01.2015;12:15:00;2293;1.8;30
11.01.2015;12:25:00;1528;2.1;30
11.01.2015;12:35:00;1582;2.4;30
11.01.2015;12:45:00;1060;2.5;30
11.01.2015;12:55:00;1217;2.7;30
11.01.2015;13:05:00;553;2.9;30
11.01.2015;13:15:00;473;2.9;30
11.01.2015;13:25:00;550;3.1;31
11.01.2015;13:35:00;1195;3.2;30
11.01.2015;13:45:00;1236;3.5;30
11.01.2015;13:55:00;664;3.6;31
11.01.2015;14:05:00;936;3.7;31
11.01.2015;14:15:00;1580;4.0;31
11.01.2015;14:25:00;938;4.1;31
11.01.2015;14:35:00;430;4.2;31
11.01.2015;14:45:00;359;4.3;31
11.01.2015;14:55:00;1430;4.5;31
11.01.2015;15:05:00;1391;4.7;31
11.01.2015;15:15:00;904;4.9;31
11.01.2015;15:25:00;707;5.0;31
11.01.2015;15:35:00;355;5.1;31
11.01.2015;15:45:00;127;5.1;31
11.01.2015;15:55:00;316;5.1;31
11.01.2015;16:05:00;502;5.2;31
11.01.2015;16:15:00;418;5.3;31
11.01.2015;16:25:00;239;5.3;31
11.01.2015;16:35:00;131;5.3;30
11.01.2015;16:45:00;144;5.4;30
11.01.2015;16:55:00;110;5.4;30
11.01.2015;17:05:00;0;5.4;0
11.01.2015;17:15:00;0;5.4;0
12.01.2015;08:25:00;26;0;16
12.01.2015;08:35:00;137;0;25
12.01.2015;08:45:00;207;0;26
12.01.2015;08:55:00;293;0.1;26
12.01.2015;09:05:00;531;0.1;27
12.01.2015;09:15:00;488;0.2;27
12.01.2015;09:25:00;477;0.3;27
12.01.2015;09:35:00;560;0.4;28
12.01.2015;09:45:00;727;0.5;28
12.01.2015;09:55:00;864;0.6;28
12.01.2015;10:05:00;1004;0.8;28
12.01.2015;10:15:00;1230;1.0;29
12.01.2015;10:25:00;1120;1.2;29
12.01.2015;10:35:00;1258;1.4;29
12.01.2015;10:45:00;1119;1.6;29
12.01.2015;10:55:00;1272;1.8;30
12.01.2015;11:05:00;1713;2.0;30
12.01.2015;11:15:00;1613;2.3;30
12.01.2015;11:25:00;1569;2.5;30
12.01.2015;11:35:00;1630;2.8;30
12.01.2015;11:45:00;1839;3.1;30
12.01.2015;11:55:00;1804;3.4;31
12.01.2015;12:05:00;1586;3.7;31
12.01.2015;12:15:00;1626;3.9;31
12.01.2015;12:25:00;1456;4.2;31
12.01.2015;12:35:00;1374;4.4;31
12.01.2015;12:45:00;1187;4.6;31
12.01.2015;12:55:00;1105;4.8;31
12.01.2015;13:05:00;1094;5.0;31
12.01.2015;13:15:00;1106;5.2;31
12.01.2015;13:25:00;1128;5.4;31
12.01.2015;13:35:00;1318;5.6;31
12.01.2015;13:45:00;1489;5.8;31
12.01.2015;13:55:00;1532;6.1;31
12.01.2015;14:05:00;1350;6.3;31
12.01.2015;14:15:00;1213;6.5;31
12.01.2015;14:25:00;1132;6.7;31
12.01.2015;14:35:00;1149;6.9;32
12.01.2015;14:45:00;1442;7.1;32
12.01.2015;14:55:00;1756;7.4;32
12.01.2015;15:05:00;1518;7.6;32
12.01.2015;15:15:00;1297;7.9;32
12.01.2015;15:25:00;1324;8.1;32
12.01.2015;15:35:00;1047;8.3;32
12.01.2015;15:45:00;786;8.4;32
12.01.2015;15:55:00;708;8.5;32
12.01.2015;16:05:00;547;8.6;32
12.01.2015;16:15:00;404;8.7;32
12.01.2015;16:25:00;342;8.8;31
12.01.2015;16:35:00;302;8.8;31
12.01.2015;16:45:00;227;8.9;31
12.01.2015;16:55:00;141;8.9;31
12.01.2015;17:05:00;120;8.9;31
12.01.2015;17:15:00;0;8.9;0
12.01.2015;17:25:00;0;8.9;0
13.01.2015;08:25:00;141;0;25
13.01.2015;08:35:00;179;0;26
13.01.2015;08:45:00;209;0;26
13.01.2015;08:55:00;240;0.1;27
13.01.2015;09:05:00;276;0.1;27
13.01.2015;09:15:00;317;0.2;27
13.01.2015;09:25:00;871;0.3;28
13.01.2015;09:35:00;1080;0.4;28
13.01.2015;09:45:00;1244;0.6;28
13.01.2015;09:55:00;1428;0.9;28
13.01.2015;10:05:00;1593;1.1;29
13.01.2015;10:15:00;1767;1.4;29
13.01.2015;10:25:00;3192;1.9;30
13.01.2015;10:35:00;3470;2.5;32
13.01.2015;10:45:00;3758;3.1;33
13.01.2015;10:55:00;4041;3.7;35
13.01.2015;11:05:00;4220;4.4;36
13.01.2015;11:15:00;4396;5.1;37
13.01.2015;11:25:00;4525;5.9;38
13.01.2015;11:35:00;4668;6.6;39
13.01.2015;11:45:00;4671;7.4;40
13.01.2015;11:55:00;4502;8.0;40
13.01.2015;12:05:00;4974;8.8;41
13.01.2015;12:15:00;5033;9.6;42
13.01.2015;12:25:00;5067;10.5;43
13.01.2015;12:35:00;5101;11.3;44
13.01.2015;12:45:00;5100;12.2;44
13.01.2015;12:55:00;4597;12.9;44
13.01.2015;13:05:00;5127;13.8;45
13.01.2015;13:15:00;5098;14.6;45
13.01.2015;13:25:00;4987;15.4;46
13.01.2015;13:35:00;4829;16.3;46
13.01.2015;13:45:00;4642;17.0;46
13.01.2015;13:55:00;4351;17.8;45
13.01.2015;14:05:00;4019;18.4;45
13.01.2015;14:15:00;2041;18.9;43
13.01.2015;14:25:00;929;19.2;41
13.01.2015;14:35:00;2046;19.4;39
13.01.2015;14:45:00;573;19.5;37
13.01.2015;14:55:00;551;19.6;36
13.01.2015;15:05:00;549;19.8;35
13.01.2015;15:15:00;720;19.9;35
13.01.2015;15:25:00;800;20.0;35
13.01.2015;15:35:00;440;20.1;34
13.01.2015;15:45:00;398;20.2;34
13.01.2015;15:55:00;331;20.2;34
13.01.2015;16:05:00;303;20.3;34
13.01.2015;16:15:00;272;20.3;33
13.01.2015;16:25:00;239;20.4;33
13.01.2015;16:35:00;200;20.4;33
13.01.2015;16:45:00;162;20.4;33
13.01.2015;16:55:00;125;20.5;33
13.01.2015;17:05:00;7;20.5;20
14.01.2015;08:10:00;0;0;4
14.01.2015;08:20:00;212;0;24
14.01.2015;08:30:00;156;0;25
14.01.2015;08:40:00;136;0;26
14.01.2015;08:50:00;0;0;5
14.01.2015;09:00:00;74;0;27
14.01.2015;09:10:00;149;0.1;27
14.01.2015;09:20:00;96;0.1;27
14.01.2015;09:30:00;10;0.1;27
14.01.2015;09:40:00;125;0.1;28
14.01.2015;09:50:00;154;0.1;28
14.01.2015;10:00:00;304;0.2;28
14.01.2015;10:10:00;381;0.2;28
14.01.2015;10:20:00;445;0.3;28
14.01.2015;10:30:00;318;0.4;29
14.01.2015;10:40:00;392;0.4;29
14.01.2015;10:50:00;264;0.5;29
14.01.2015;11:00:00;248;0.5;29
14.01.2015;11:10:00;189;0.6;29
14.01.2015;11:20:00;153;0.6;29
14.01.2015;11:30:00;156;0.6;29
14.01.2015;11:40:00;195;0.6;29
14.01.2015;11:50:00;408;0.7;29
14.01.2015;12:00:00;448;0.8;30
14.01.2015;12:10:00;433;0.8;30
14.01.2015;12:20:00;544;0.9;30
14.01.2015;12:30:00;637;1.0;30
14.01.2015;12:40:00;1025;1.2;30
14.01.2015;12:50:00;1293;1.3;30
14.01.2015;13:00:00;1397;1.6;30
14.01.2015;13:10:00;1224;1.8;30
14.01.2015;13:20:00;994;2.0;30
14.01.2015;13:30:00;669;2.1;31
14.01.2015;13:40:00;1540;2.3;31
14.01.2015;13:50:00;850;2.5;31
14.01.2015;14:00:00;868;2.6;31
14.01.2015;14:10:00;844;2.8;31
14.01.2015;14:20:00;1049;2.9;31
14.01.2015;14:30:00;846;3.1;31
14.01.2015;14:40:00;666;3.2;31
14.01.2015;14:50:00;465;3.3;31
14.01.2015;15:00:00;554;3.4;31
14.01.2015;15:10:00;630;3.5;31
14.01.2015;15:20:00;654;3.6;31
14.01.2015;15:30:00;858;3.7;31
14.01.2015;15:40:00;459;3.8;31
14.01.2015;15:50:00;380;3.9;31
14.01.2015;16:00:00;735;4.0;31
14.01.2015;16:10:00;558;4.1;31
14.01.2015;16:20:00;317;4.1;31
14.01.2015;16:30:00;234;4.2;31
14.01.2015;16:40:00;129;4.2;31
14.01.2015;16:50:00;92;4.2;31
14.01.2015;17:00:00;0;4.2;0
14.01.2015;17:05:00;0;4.2;0
15.01.2015;08:20:00;68;0;21
15.01.2015;08:30:00;187;0;25
15.01.2015;08:40:00;248;0;26
15.01.2015;08:50:00;331;0.1;26
15.01.2015;09:00:00;469;0.1;27
15.01.2015;09:10:00;709;0.3;27
15.01.2015;09:20:00;929;0.4;27
15.01.2015;09:30:00;1615;0.6;28
15.01.2015;09:40:00;1720;0.9;28
15.01.2015;09:50:00;1933;1.2;28
15.01.2015;10:00:00;2788;1.6;29
15.01.2015;10:10:00;2012;2.0;30
15.01.2015;10:20:00;2730;2.4;31
15.01.2015;10:30:00;2931;2.9;32
15.01.2015;10:40:00;4706;3.6;34
15.01.2015;10:50:00;3020;4.3;36
15.01.2015;11:00:00;2074;4.7;35
15.01.2015;11:10:00;1671;4.9;34
15.01.2015;11:20:00;2765;5.4;34
15.01.2015;11:30:00;3310;5.9;35
15.01.2015;11:40:00;2221;6.3;35
15.01.2015;11:50:00;2260;6.6;35
15.01.2015;12:00:00;3059;7.1;35
15.01.2015;12:10:00;2579;7.6;35
15.01.2015;12:20:00;2164;7.9;35
15.01.2015;12:30:00;2701;8.4;36
15.01.2015;12:40:00;2695;8.8;36
15.01.2015;12:50:00;2070;9.2;35
15.01.2015;13:00:00;1856;9.5;35
15.01.2015;13:10:00;1715;9.8;35
15.01.2015;13:20:00;1604;10.1;34
15.01.2015;13:30:00;1339;10.3;34
15.01.2015;13:40:00;1094;10.5;33
15.01.2015;13:50:00;1272;10.7;33
15.01.2015;14:00:00;1191;10.9;33
15.01.2015;14:10:00;844;11.1;33
15.01.2015;14:20:00;822;11.2;33
15.01.2015;14:30:00;1067;11.4;32
15.01.2015;14:40:00;815;11.5;32
15.01.2015;14:50:00;942;11.7;32
15.01.2015;15:00:00;798;11.8;32
15.01.2015;15:10:00;1076;12.0;32
15.01.2015;15:20:00;821;12.1;32
15.01.2015;15:30:00;763;12.2;32
15.01.2015;15:40:00;947;12.4;32
15.01.2015;15:50:00;908;12.5;32
15.01.2015;16:00:00;665;12.6;32
15.01.2015;16:10:00;496;12.7;32
15.01.2015;16:20:00;376;12.8;32
15.01.2015;16:30:00;403;12.9;32
15.01.2015;16:40:00;305;12.9;32
15.01.2015;16:50:00;161;13.0;31
15.01.2015;17:00:00;80;13.0;31
15.01.2015;17:10:00;0;13.0;0
16.01.2015;08:20:00;38;0;21
16.01.2015;08:30:00;178;0;25
16.01.2015;08:40:00;239;0;26
16.01.2015;08:50:00;224;0.1;26
16.01.2015;09:00:00;319;0.1;27
16.01.2015;09:10:00;315;0.2;27
16.01.2015;09:20:00;346;0.2;27
16.01.2015;09:30:00;503;0.3;28
16.01.2015;09:40:00;590;0.4;28
16.01.2015;09:50:00;773;0.5;28
16.01.2015;10:00:00;656;0.6;28
16.01.2015;10:10:00;851;0.7;29
16.01.2015;10:20:00;955;0.9;29
16.01.2015;10:30:00;1585;1.1;29
16.01.2015;10:40:00;1504;1.4;29
16.01.2015;10:50:00;2759;1.8;30
16.01.2015;11:00:00;2264;2.1;30
16.01.2015;11:10:00;3555;2.5;31
16.01.2015;11:20:00;4788;3.3;34
16.01.2015;11:30:00;3098;3.9;35
16.01.2015;11:40:00;1741;4.3;35
16.01.2015;11:50:00;1632;4.6;34
16.01.2015;12:00:00;2750;5.0;34
16.01.2015;12:10:00;4606;5.7;36
16.01.2015;12:20:00;3287;6.2;37
16.01.2015;12:30:00;2435;6.7;36
16.01.2015;12:40:00;1519;7.0;35
16.01.2015;12:50:00;1412;7.2;34
16.01.2015;13:00:00;1263;7.4;34
16.01.2015;13:10:00;1583;7.7;34
16.01.2015;13:20:00;1371;7.9;33
16.01.2015;13:30:00;1334;8.1;33
16.01.2015;13:40:00;946;8.3;33
16.01.2015;13:50:00;959;8.4;33
16.01.2015;14:00:00;860;8.6;32
16.01.2015;14:10:00;1002;8.7;32
16.01.2015;14:20:00;1185;8.9;32
16.01.2015;14:30:00;886;9.1;32
16.01.2015;14:40:00;803;9.2;32
16.01.2015;14:50:00;683;9.4;32
16.01.2015;15:00:00;732;9.5;32
16.01.2015;15:10:00;831;9.6;32
16.01.2015;15:20:00;557;9.7;32
16.01.2015;15:30:00;502;9.8;32
16.01.2015;15:40:00;523;9.9;32
16.01.2015;15:50:00;301;9.9;32
16.01.2015;16:00:00;286;10.0;31
16.01.2015;16:10:00;230;10.0;31
16.01.2015;16:20:00;234;10.1;31
16.01.2015;16:30:00;167;10.1;31
16.01.2015;16:40:00;130;10.1;31
16.01.2015;16:50:00;8;10.1;31
16.01.2015;17:00:00;0;10.1;0
16.01.2015;17:10:00;0;10.1;0
17.01.2015;09:25:00;0;0;9
17.01.2015;09:35:00;0;0;26
17.01.2015;09:45:00;0;0;26
17.01.2015;09:55:00;0;0;26
17.01.2015;10:05:00;0;0;26
17.01.2015;10:15:00;0;0;26
17.01.2015;10:25:00;122;0;27
17.01.2015;10:35:00;131;0;27
17.01.2015;10:45:00;140;0;27
17.01.2015;10:55:00;167;0;27
17.01.2015;11:05:00;170;0.1;28
17.01.2015;11:15:00;186;0.1;28
17.01.2015;11:25:00;212;0.1;28
17.01.2015;11:35:00;205;0.2;28
17.01.2015;11:45:00;205;0.2;28
17.01.2015;11:55:00;213;0.2;29
17.01.2015;12:05:00;237;0.3;29
17.01.2015;12:15:00;239;0.3;29
17.01.2015;12:25:00;247;0.4;29
17.01.2015;12:35:00;256;0.4;29
17.01.2015;12:45:00;273;0.4;29
17.01.2015;12:55:00;321;0.5;29
17.01.2015;13:05:00;294;0.5;29
17.01.2015;13:15:00;274;0.6;29
17.01.2015;13:25:00;283;0.6;30
17.01.2015;13:35:00;266;0.7;30
17.01.2015;13:45:00;263;0.7;30
17.01.2015;13:55:00;251;0.8;30
17.01.2015;14:05:00;224;0.8;30
17.01.2015;14:15:00;216;0.8;30
17.01.2015;14:25:00;209;0.9;30
17.01.2015;14:35:00;208;0.9;30
17.01.2015;14:45:00;196;0.9;30
17.01.2015;14:55:00;179;1.0;30
17.01.2015;15:05:00;182;1.0;30
17.01.2015;15:15:00;162;1.0;30
17.01.2015;15:25:00;153;1.1;30
17.01.2015;15:35:00;139;1.1;30